Change the Weather History Date:

Saturday, January 26, 2013

  Actual Average Record
Temperature  
Mean Temperature 60 °F -  
Max Temperature 63 °F 61 °F 82 °F (2003)
Min Temperature 57 °F 48 °F 43 °F (2001)
Degree Days  
Heating Degree Days 5    
Growing Degree Days 10 (Base 50)    
Moisture  
Dew Point 57 °F    
Average Humidity 88    
Maximum Humidity 94    
Minimum Humidity 82    
Precipitation  
Precipitation 0.02 in - - ()
Sea Level Pressure  
Sea Level Pressure 29.94 in    
Wind  
Wind Speed 3 mph (SSW)    
Max Wind Speed 8 mph    
Max Gust Speed -    
Visibility 3 miles    
Events Fog , Rain    
Averages and records for this station are not official NWS values.
T = Trace of Precipitation, MM = Missing Value Source: NWS Daily Summary

Daily Weather History Graph

Daily Weather History Graph

Search for Another Location

Airport or City:

Trip Planner

Search our weather history database for the weather conditions in past years. The results will help you decide how hot, cold, wet, or windy it might be!

Date:

Astronomy

Jan. 26, 2013 Rise Set
Actual Time 6:46 AM PST 5:16 PM PST
Civil Twilight 6:20 AM PST 5:42 PM PST
Nautical Twilight 5:51 AM PST 6:12 PM PST
Astronomical Twilight 5:21 AM PST 6:41 PM PST
Moon 5:12 PM PST (1/26) 6:09 AM PST (1/26)
Length of Visible Light 11h 21m
Length of Day
10h 29m
Full, 100% of the Moon is Illuminated
Jan 26
Full
Jan 26
Full
Feb 3
Last Quarter
Feb 9
New
Feb 17
First Quarter

Hourly Weather History & Observations

Time (PST) Temp. Dew Point Humidity Pressure Visibility Wind Dir Wind Speed Gust Speed Precip Events Conditions
12:52 AM 60.1 °F 55.9 °F 86% 29.94 in 3.0 mi ESE 4.6 mph - 0.02 in Rain Light Rain
1:52 AM 60.1 °F 57.0 °F 90% 29.92 in 2.0 mi Calm Calm - 0.00 in Rain Light Rain
2:17 AM 60.8 °F 57.2 °F 88% 29.92 in 2.0 mi Calm Calm - 0.00 in Rain Light Rain
2:41 AM 60.8 °F 57.2 °F 88% 29.92 in 3.0 mi Calm Calm - 0.00 in Rain Light Rain
2:52 AM 60.1 °F 57.0 °F 90% 29.91 in 4.0 mi Calm Calm - 0.00 in Rain Light Rain
3:15 AM 59.0 °F 57.2 °F 94% 29.91 in 3.0 mi Calm Calm - 0.00 in   Overcast
3:32 AM 59.0 °F 57.2 °F 94% 29.91 in 5.0 mi Calm Calm - 0.00 in   Mostly Cloudy
3:52 AM 59.0 °F 57.0 °F 93% 29.90 in 3.0 mi Calm Calm - 0.00 in   Mostly Cloudy
4:18 AM 59.0 °F 57.2 °F 94% 29.90 in 3.0 mi Calm Calm - N/A   Mostly Cloudy
4:30 AM 60.8 °F 57.2 °F 88% 29.89 in 0.5 mi Calm Calm - N/A Fog Fog
4:52 AM 60.1 °F 57.0 °F 90% 29.89 in 1.0 mi Calm Calm - N/A   Mostly Cloudy
5:03 AM 60.8 °F 57.2 °F 88% 29.89 in 3.0 mi Calm Calm - N/A   Mostly Cloudy
5:52 AM 60.1 °F 57.0 °F 90% 29.90 in 5.0 mi SSW 3.5 mph - N/A   Mostly Cloudy
6:07 AM 60.8 °F 57.2 °F 88% 29.91 in 2.5 mi SW 4.6 mph - N/A   Overcast
6:17 AM 60.8 °F 57.2 °F 88% 29.91 in 3.0 mi SSW 5.8 mph - N/A   Overcast
6:28 AM 60.8 °F 55.4 °F 82% 29.91 in 1.0 mi SSW 5.8 mph - N/A   Overcast
6:43 AM 60.8 °F 57.2 °F 88% 29.91 in 0.5 mi SSW 3.5 mph - N/A Fog Fog
6:52 AM 60.1 °F 57.0 °F 90% 29.92 in 0.2 mi SSW 3.5 mph - N/A Fog Fog
7:46 AM 59.0 °F 55.4 °F 88% 29.92 in 0.1 mi South 3.5 mph - 0.00 in Fog , Rain Light Rain
7:52 AM 59.0 °F 55.9 °F 90% 29.92 in 0.1 mi SSW 3.5 mph - 0.00 in Fog , Rain Light Rain
8:30 AM 60.8 °F 57.2 °F 88% 29.93 in 3.0 mi Calm Calm - 0.00 in Rain Light Rain
8:52 AM 61.0 °F 57.9 °F 90% 29.94 in 5.0 mi Calm Calm - 0.00 in   Overcast
9:18 AM 60.8 °F 57.2 °F 88% 29.94 in 2.0 mi Calm Calm - 0.00 in Rain Light Rain
9:52 AM 61.0 °F 57.9 °F 90% 29.95 in 1.0 mi Calm Calm - 0.00 in Rain Light Rain
10:23 AM 60.8 °F 57.2 °F 88% 29.95 in 1.0 mi Calm Calm - 0.00 in   Overcast
10:52 AM 61.0 °F 57.0 °F 87% 29.95 in 0.2 mi Calm Calm - 0.00 in Fog Fog
11:05 AM 60.8 °F 57.2 °F 88% 29.95 in 0.2 mi Calm Calm - 0.00 in Fog , Rain Light Rain
11:26 AM 62.6 °F 60.8 °F 94% 29.94 in 3.0 mi SSW 3.5 mph - 0.00 in   Overcast
11:47 AM 62.6 °F 59.0 °F 88% 29.93 in 4.0 mi South 5.8 mph - 0.00 in   Overcast
11:52 AM 63.0 °F 60.1 °F 90% 29.93 in 4.0 mi South 4.6 mph - 0.00 in   Overcast
12:39 PM 62.6 °F 57.2 °F 82% 29.92 in 2.0 mi WSW 6.9 mph - N/A   Overcast
12:52 PM 62.1 °F 57.9 °F 86% 29.92 in 2.0 mi WSW 6.9 mph - N/A   Overcast
1:29 PM 62.6 °F 57.2 °F 82% 29.91 in 2.0 mi SSW 4.6 mph - N/A   Overcast
1:52 PM 61.0 °F 55.9 °F 83% 29.92 in 4.0 mi SSW 6.9 mph - N/A   Overcast
2:52 PM 61.0 °F 55.9 °F 83% 29.94 in 4.0 mi WSW 8.1 mph - N/A   Overcast
3:52 PM 61.0 °F 55.9 °F 83% 29.94 in 6.0 mi WSW 6.9 mph - N/A   Overcast
4:52 PM 60.1 °F 55.9 °F 86% 29.95 in 6.0 mi West 6.9 mph - N/A   Overcast
5:52 PM 60.1 °F 55.9 °F 86% 29.96 in 4.0 mi South 3.5 mph - N/A   Overcast
6:52 PM 59.0 °F 55.9 °F 90% 29.97 in 4.0 mi SSE 3.5 mph - N/A   Overcast
7:52 PM 59.0 °F 55.0 °F 87% 29.98 in 3.0 mi SSE 5.8 mph - 0.00 in   Light Drizzle
8:52 PM 60.1 °F 55.9 °F 86% 29.99 in 4.0 mi South 5.8 mph - 0.00 in   Light Drizzle
9:52 PM 59.0 °F 55.9 °F 90% 30.01 in 2.0 mi SSW 4.6 mph - 0.00 in Rain Light Rain
10:16 PM 57.2 °F 55.4 °F 94% 30.01 in 2.0 mi WSW 8.1 mph - 0.00 in Rain Light Rain
10:30 PM 59.0 °F 55.4 °F 88% 30.01 in 3.0 mi WSW 5.8 mph - 0.00 in Rain Light Rain
10:52 PM 59.0 °F 55.0 °F 87% 30.02 in 2.0 mi WSW 5.8 mph - 0.00 in Rain Light Rain
11:33 PM 59.0 °F 55.4 °F 88% 30.02 in 4.0 mi SW 5.8 mph - 0.00 in Rain Light Rain
11:52 PM 59.0 °F 55.0 °F 87% 30.02 in 5.0 mi SW 4.6 mph - 0.00 in   Overcast